SQ4MUI-13 Weather Reports


Display with metric or nautical units.
time (UTC)temp
F
wind
direction
speed
MPH
gust
MPH
rain 1hr
in
rain 24hr
in
rain mn
in
humidity
%
barometer
mb
20260507041908 0 0.0 0.0 0.00 0.00 0.00 10 1007.1
20260507040905 0 0.0 0.0 0.00 0.00 0.00 10 1007.1
20260507035902 0 0.0 0.0 0.00 0.00 0.00 10 1007.0
20260507034859 0 0.0 0.0 0.00 0.00 0.00 10 1007.0
20260507033856 0 0.0 0.0 0.00 0.00 0.00 10 1006.9
20260507032853 0 0.0 0.0 0.00 0.00 0.00 10 1006.8
20260507031850 0 0.0 0.0 0.00 0.00 0.00 10 1006.9
20260507030847 0 0.0 0.0 0.00 0.00 0.00 10 1006.8
20260507025844 0 0.0 0.0 0.00 0.00 0.00 10 1006.9
20260507024841 0 0.0 0.0 0.00 0.00 0.00 10 1007.0
20260507023838 0 0.0 0.0 0.00 0.00 0.00 10 1007.0
20260507022835 0 0.0 0.0 0.00 0.00 0.00 10 1007.0
20260507021832 0 0.0 0.0 0.00 0.00 0.00 10 1007.1
20260507020829 0 0.0 0.0 0.00 0.00 0.00 10 1006.7
20260507015826 0 0.0 0.0 0.00 0.00 0.00 10 1006.8
20260507014823 0 0.0 0.0 0.00 0.00 0.00 10 1006.7
20260507013820 0 0.0 0.0 0.00 0.00 0.00 10 1006.8
20260507012817 0 0.0 0.0 0.00 0.00 0.00 10 1006.8
20260507011814 0 0.0 0.0 0.00 0.00 0.00 10 1006.8
20260507010811 0 0.0 0.0 0.00 0.00 0.00 10 1006.8
20260507005808 0 0.0 0.0 0.00 0.00 0.00 10 1006.6
20260507004805 0 0.0 0.0 0.00 0.00 0.00 10 1006.6
20260507003802 0 0.0 0.0 0.00 0.00 0.00 10 1006.7
20260507002758 0 0.0 0.0 0.00 0.00 0.00 10 1006.8
20260507001755 0 0.0 0.0 0.00 0.00 0.00 10 1006.9
20260507000752 0 0.0 0.0 0.00 0.00 0.00 10 1006.9
20260506235749 0 0.0 0.0 0.00 0.00 0.00 10 1006.9
20260506234746 0 0.0 0.0 0.00 0.00 0.00 10 1006.9
20260506233743 0 0.0 0.0 0.00 0.00 0.00 10 1007.1
20260506232739 0 0.0 0.0 0.00 0.00 0.00 10 1007.2
20260506231736 0 0.0 0.0 0.00 0.00 0.00 10 1007.2
20260506230733 0 0.0 0.0 0.00 0.00 0.00 10 1007.3
20260506225730 0 0.0 0.0 0.00 0.00 0.00 10 1007.3
20260506224727 0 0.0 0.0 0.00 0.00 0.00 10 1007.4
20260506223723 0 0.0 0.0 0.00 0.00 0.00 10 1007.5
20260506222720 0 0.0 0.0 0.00 0.00 0.00 10 1007.3
20260506221717 0 0.0 0.0 0.00 0.00 0.00 10 1007.2
20260506220714 0 0.0 0.0 0.00 0.00 0.00 10 1007.2
20260506215711 0 0.0 0.0 0.00 0.00 0.00 10 1007.0
20260506214708 0 0.0 0.0 0.00 0.00 0.00 10 1007.0
20260506213705 0 0.0 0.0 0.00 0.00 0.00 10 1007.1
20260506212702 0 0.0 0.0 0.00 0.00 0.00 10 1007.1
20260506211657 0 0.0 0.0 0.00 0.00 0.00 10 1007.2
20260506210653 0 0.0 0.0 0.00 0.00 0.00 10 1007.2
20260506205650 0 0.0 0.0 0.00 0.00 0.00 10 1007.3
20260506204647 0 0.0 0.0 0.00 0.00 0.00 10 1007.2
20260506203644 0 0.0 0.0 0.00 0.00 0.00 10 1007.2
20260506202641 0 0.0 0.0 0.00 0.00 0.00 10 1007.2
20260506201638 0 0.0 0.0 0.00 0.00 0.00 97 1007.2
20260506200635 0 0.0 0.0 0.00 0.00 0.00 93 1007.1
20260506195632 0 0.0 0.0 0.00 0.00 0.00 90 1007.1
20260506194629 0 0.0 0.0 0.00 0.00 0.00 86 1007.0
20260506193626 0 0.0 0.0 0.00 0.00 0.00 82 1007.0
20260506192623 0 0.0 0.0 0.00 0.00 0.00 76 1007.0
20260506191620 0 0.0 0.0 0.00 0.00 0.00 71 1007.0
20260506190617 0 0.0 0.0 0.00 0.00 0.00 67 1006.8
20260506185614 0 0.0 0.0 0.00 0.00 0.00 64 1006.7
20260506184611 0 0.0 0.0 0.00 0.00 0.00 61 1006.6
20260506183607 0 0.0 0.0 0.00 0.00 0.00 58 1006.4
20260506182604 0 0.0 0.0 0.00 0.00 0.00 56 1006.2
20260506181600 0 0.0 0.0 0.00 0.00 0.00 53 1006.1
20260506180558 0 0.0 0.0 0.00 0.00 0.00 51 1006.0
20260506175555 0 0.0 0.0 0.00 0.00 0.00 49 1006.0
20260506174552 0 0.0 0.0 0.00 0.00 0.00 48 1005.9
20260506173549 0 0.0 0.0 0.00 0.00 0.00 47 1005.9
20260506172545 0 0.0 0.0 0.00 0.00 0.00 46 1005.8
20260506171542 0 0.0 0.0 0.00 0.00 0.00 44 1005.6
20260506170539 0 0.0 0.0 0.00 0.00 0.00 42 1005.5
20260506165535 0 0.0 0.0 0.00 0.00 0.00 40 1005.4
20260506164532 0 0.0 0.0 0.00 0.00 0.00 37 1005.4
20260506163529 0 0.0 0.0 0.00 0.00 0.00 32 1005.3
20260506162526 0 0.0 0.0 0.00 0.00 0.00 34 1005.3
20260506161523 0 0.0 0.0 0.00 0.00 0.00 35 1005.2
20260506160520 0 0.0 0.0 0.00 0.00 0.00 36 1005.2
20260506155517 0 0.0 0.0 0.00 0.00 0.00 33 1005.2
20260506154514 0 0.0 0.0 0.00 0.00 0.00 33 1005.3
20260506153511 0 0.0 0.0 0.00 0.00 0.00 32 1005.2
20260506152508 0 0.0 0.0 0.00 0.00 0.00 35 1005.1
20260506151505 0 0.0 0.0 0.00 0.00 0.00 35 1005.1
20260506150502 0 0.0 0.0 0.00 0.00 0.00 34 1005.0
20260506145457 0 0.0 0.0 0.00 0.00 0.00 33 1005.1
20260506144454 0 0.0 0.0 0.00 0.00 0.00 32 1005.1
20260506143451 0 0.0 0.0 0.00 0.00 0.00 30 1005.1
20260506142447 0 0.0 0.0 0.00 0.00 0.00 29 1005.1
20260506141444 0 0.0 0.0 0.00 0.00 0.00 29 1004.8
20260506140441 0 0.0 0.0 0.00 0.00 0.00 31 1004.9
20260506135438 0 0.0 0.0 0.00 0.00 0.00 31 1004.9
20260506134435 0 0.0 0.0 0.00 0.00 0.00 30 1004.9
20260506133432 0 0.0 0.0 0.00 0.00 0.00 29 1005.1
20260506132429 0 0.0 0.0 0.00 0.00 0.00 30 1005.0
20260506131426 0 0.0 0.0 0.00 0.00 0.00 29 1005.3
20260506130423 0 0.0 0.0 0.00 0.00 0.00 28 1005.2
20260506125420 0 0.0 0.0 0.00 0.00 0.00 30 1005.2
20260506124417 0 0.0 0.0 0.00 0.00 0.00 30 1004.9
20260506123414 0 0.0 0.0 0.00 0.00 0.00 30 1005.0
20260506122411 0 0.0 0.0 0.00 0.00 0.00 30 1005.0
20260506121408 0 0.0 0.0 0.00 0.00 0.00 31 1005.3
20260506120405 0 0.0 0.0 0.00 0.00 0.00 31 1005.3
20260506115402 0 0.0 0.0 0.00 0.00 0.00 31 1005.5
20260506114359 0 0.0 0.0 0.00 0.00 0.00 31 1005.8
20260506113355 0 0.0 0.0 0.00 0.00 0.00 30 1005.9
20260506112352 0 0.0 0.0 0.00 0.00 0.00 29 1005.9
20260506111350 0 0.0 0.0 0.00 0.00 0.00 33 1005.9
20260506110346 0 0.0 0.0 0.00 0.00 0.00 32 1005.9
20260506105343 0 0.0 0.0 0.00 0.00 0.00 33 1006.0
20260506104340 0 0.0 0.0 0.00 0.00 0.00 36 1006.0
20260506103337 0 0.0 0.0 0.00 0.00 0.00 38 1006.1
20260506102334 0 0.0 0.0 0.00 0.00 0.00 38 1006.2
20260506101330 0 0.0 0.0 0.00 0.00 0.00 39 1006.4
20260506100327 0 0.0 0.0 0.00 0.00 0.00 40 1006.3
20260506095324 0 0.0 0.0 0.00 0.00 0.00 40 1006.4
20260506094321 0 0.0 0.0 0.00 0.00 0.00 42 1006.5
20260506093318 0 0.0 0.0 0.00 0.00 0.00 45 1006.5
20260506092315 0 0.0 0.0 0.00 0.00 0.00 47 1006.6
20260506091312 0 0.0 0.0 0.00 0.00 0.00 51 1006.8
20260506090308 0 0.0 0.0 0.00 0.00 0.00 61 1006.9
20260506085306 0 0.0 0.0 0.00 0.00 0.00 66 1007.0
20260506084302 0 0.0 0.0 0.00 0.00 0.00 74 1007.0
20260506083259 0 0.0 0.0 0.00 0.00 0.00 78 1006.9
20260506082256 0 0.0 0.0 0.00 0.00 0.00 80 1007.0
20260506081253 0 0.0 0.0 0.00 0.00 0.00 82 1007.2
20260506080250 0 0.0 0.0 0.00 0.00 0.00 84 1007.4
20260506073241 0 0.0 0.0 0.00 0.00 0.00 98 1007.5
20260506072238 0 0.0 0.0 0.00 0.00 0.00 10 1007.6
20260506071234 0 0.0 0.0 0.00 0.00 0.00 10 1007.5
20260506070231 0 0.0 0.0 0.00 0.00 0.00 10 1007.5
20260506061709 0 0.0 0.0 0.00 0.00 0.00 10 1007.7
20260506060706 0 0.0 0.0 0.00 0.00 0.00 10 1007.7
20260506050647 0 0.0 0.0 0.00 0.00 0.00 10 1007.9
20260506044641 0 0.0 0.0 0.00 0.00 0.00 10 1007.8
20260506043638 0 0.0 0.0 0.00 0.00 0.00 10 1007.8
20260506042635 0 0.0 0.0 0.00 0.00 0.00 10 1007.8